FW1436 Weather Reports


Display with metric or nautical units.
time (UTC)temp
F
wind
direction
speed
MPH
gust
MPH
rain 1hr
in
rain 24hr
in
rain mn
in
humidity
%
barometer
mb
20260504050016 47 271 0.0 0.0 0.00 0.00 0.00 88 1008.9
20260504044512 47 271 0.0 0.0 0.00 0.00 0.00 87 1008.8
20260504043010 48 271 0.0 0.0 0.00 0.00 0.00 86 1008.9
20260504041509 49 271 0.0 1.0 0.00 0.00 0.00 85 1008.8
20260504040022 49 269 0.0 0.0 0.00 0.00 0.00 85 1008.9
20260504034507 49 269 0.0 0.0 0.00 0.00 0.00 85 1008.9
20260504033006 49 269 0.0 0.0 0.00 0.00 0.00 85 1008.9
20260504031505 49 269 0.0 0.0 0.00 0.00 0.00 84 1009.0
20260504030003 50 270 0.0 2.0 0.00 0.00 0.00 84 1008.9
20260504024502 50 272 0.0 1.0 0.00 0.00 0.00 84 1009.0
20260504023104 50 287 0.0 2.0 0.00 0.00 0.00 83 1009.0
20260504021558 50 281 0.0 0.0 0.00 0.00 0.00 82 1009.1
20260504020101 51 278 0.0 1.0 0.00 0.00 0.00 81 1009.0
20260504014604 51 276 0.0 1.0 0.00 0.00 0.00 80 1009.0
20260504013058 52 277 0.0 1.0 0.00 0.00 0.00 79 1009.1
20260504011550 53 274 0.0 1.0 0.00 0.00 0.00 79 1009.1
20260504010053 53 288 0.0 2.0 0.00 0.00 0.00 78 1009.2
20260504004551 53 275 0.0 2.0 0.00 0.00 0.00 77 1009.2
20260504003054 54 274 1.0 3.0 0.00 0.00 0.00 76 1009.4
20260504001555 55 307 0.0 7.0 0.00 0.00 0.00 75 1009.5
20260504000040 55 293 1.0 6.0 0.00 0.00 0.00 74 1009.5
20260503234538 55 266 0.0 5.0 0.00 0.00 0.00 73 1009.6
20260503233038 56 264 0.0 1.0 0.00 0.00 0.00 72 1009.5
20260503231533 56 261 0.0 3.0 0.00 0.00 0.00 71 1009.6
20260503230033 57 299 0.0 4.0 0.00 0.00 0.00 70 1009.6
20260503224529 57 257 0.0 3.0 0.00 0.00 0.00 68 1009.6
20260503223028 58 244 1.0 6.0 0.00 0.00 0.00 68 1009.6
20260503221527 58 262 0.0 4.0 0.00 0.00 0.00 68 1009.6
20260503220022 58 274 2.0 7.0 0.00 0.00 0.00 68 1009.6
20260503214520 58 240 0.0 3.0 0.00 0.00 0.00 68 1009.5
20260503213021 59 273 1.0 5.0 0.00 0.00 0.00 67 1009.4
20260503211520 59 217 0.0 4.0 0.00 0.00 0.00 67 1009.3
20260503210020 59 298 1.0 5.0 0.00 0.00 0.00 67 1009.3
20260503204526 59 248 0.0 3.0 0.00 0.00 0.00 67 1009.2
20260503203018 59 269 0.0 3.0 0.00 0.00 0.00 67 1009.0
20260503201617 59 269 0.0 5.0 0.00 0.00 0.00 67 1008.8
20260503200057 60 250 0.0 5.0 0.00 0.00 0.00 66 1008.6
20260503194517 60 318 2.0 6.0 0.00 0.00 0.00 66 1008.5
20260503193034 60 304 2.0 6.0 0.00 0.00 0.00 66 1008.1
20260503191514 61 262 2.0 8.0 0.00 0.00 0.00 66 1008.1
20260503190014 61 233 2.0 7.0 0.00 0.00 0.00 65 1008.0
20260503184520 62 294 3.0 9.0 0.00 0.00 0.00 64 1008.0
20260503183012 62 272 3.0 9.0 0.00 0.00 0.00 63 1007.9
20260503181512 63 71 2.0 5.0 0.00 0.00 0.00 63 1007.9
20260503180017 63 266 4.0 8.0 0.00 0.00 0.00 63 1007.8
20260503174508 63 286 4.0 11.0 0.00 0.00 0.00 62 1007.9
20260503173019 64 312 1.0 11.0 0.00 0.00 0.00 61 1008.1
20260503171519 65 274 5.0 12.0 0.00 0.00 0.00 59 1008.2
20260503140200 66 261 7.0 14.0 0.00 0.00 0.00 56 1008.9
20260503081509 55 101 0.0 0.0 0.00 0.00 0.00 94 1011.3
20260503071507 55 359 0.0 4.0 0.00 0.00 0.00 95 1011.0